Wind_Speed
46 56 54 40 42 35 36 39 35 29 29 32 35 37 24 24 21 20 18 18 17 14 14 12 11 11 10 4 6 7 4 4 5 7 0 4 2 8 12 4 4 8 7 7
44 56 54 41 40 36 34 38 35 30 35 34 33 26 29 25 24 22 20 18 17 15 13 8 10 9 6 4 5 3 6 3 5 1 3 4 6 10 11 15 15 13 5 8
43 51 47 39 37 31 39 39 32 36 40 37 34 31 27 25 22 19 18 14 14 13 12 10 10 8 5 5 5 4 4 5 7 9 10 15 20 16 15 12 11 18 17 26
40 49 50 34 33 37 38 39 28 35 47 42 34 31 29 29 25 21 17 14 13 12 12 11 11 10 5 4 2 4 6 10 14 17 19 17 18 17 13 16 13 11 17 12
39 50 36 31 39 38 39 38 32 35 18 34 31 33 28 27 23 18 20 15 14 11 9 8 15 9 7 3 4 4 7 5 13 18 8 9 9 9 13 13 12 16 14 11
45 35 42 47 38 40 37 37 33 32 23 39 33 33 27 23 22 16 11 13 13 12 12 12 10 9 9 6 3 2 4 7 9 6 6 8 6 8 10 11 15 10 9 14
37 44 44 41 35 35 36 32 26 36 35 35 29 30 24 21 21 15 17 14 13 14 13 9 7 10 8 4 2 3 6 6 5 9 7 2 2 6 15 15 16 18 20 22
41 42 33 33 34 41 35 27 27 35 31 32 29 24 23 23 17 13 14 15 14 14 11 10 9 9 7 7 5 5 7 6 5 4 6 7 6 15 17 15 12 14 13 17
37 34 33 36 41 40 33 30 31 35 28 31 26 25 22 22 21 19 18 18 16 13 12 12 6 6 5 5 4 8 7 6 4 4 4 3 5 17 15 11 11 9 19 18
32 37 40 40 41 43 27 30 25 25 22 28 23 24 24 19 19 21 22 19 16 12 12 14 7 6 6 5 5 6 7 8 10 9 6 6 6 18 13 4 6 16 16 17
40 40 41 38 37 39 33 31 27 21 21 28 23 17 14 18 17 19 22 19 16 13 10 10 7 7 8 6 5 4 5 3 3 4 4 5 9 16 11 13 11 12 13 15
43 43 44 45 40 36 31 25 22 21 16 26 20 19 17 13 10 14 19 14 14 11 9 8 7 7 6 8 4 8 5 5 5 5 7 13 15 17 11 10 9 11 13 15
35 34 34 35 33 29 26 24 22 21 15 25 25 23 18 16 15 16 12 13 11 12 11 8 7 5 6 7 8 9 8 8 9 10 7 13 15 9 8 7 10 11 13 15
37 32 30 31 28 25 24 25 26 21 27 26 24 19 16 13 13 13 13 13 12 11 10 10 7 6 6 7 9 10 9 10 8 10 11 14 11 7 7 8 10 13 15 15
31 28 28 27 27 27 28 26 24 20 16 25 24 17 13 11 10 11 11 13 13 11 10 9 8 8 9 13 15 16 12 10 9 10 11 12 12 9 9 10 10 11 13 14
30 31 29 28 27 27 26 27 24 21 9 23 23 16 12 10 9 10 11 12 11 11 10 10 10 10 10 8 10 8 8 10 10 9 10 12 11 11 11 11 12 13 14 16
31 30 29 27 25 26 28 27 25 23 16 19 19 15 12 11 10 10 10 9 7 5 5 6 8 9 10 14 17 7 8 10 9 8 9 12 13 13 12 13 15 16 18 21
29 28 28 27 25 24 20 21 22 21 20 15 9 12 14 12 11 11 10 8 5 3 3 5 6 8 9 6 3 8 10 9 8 9 12 15 14 13 13 14 16 19 21 23
30 28 27 26 24 20 20 22 22 21 13 9 9 16 15 15 13 12 11 7 6 5 4 5 5 8 6 4 2 4 5 6 8 10 13 14 14 14 14 15 18 21 24 26
29 28 27 25 23 20 20 20 20 19 13 9 13 15 14 17 15 13 8 5 3 1 2 3 6 10 8 10 10 10 9 9 10 12 14 13 12 14 15 18 21 23 26 28
28 27 26 25 23 21 17 12 10 10 9 12 17 13 15 14 13 10 7 3 1 1 1 2 3 3 7 5 7 9 10 10 12 11 10 10 11 14 18 21 24 27 29 30
23 22 21 24 20 10 6 11 11 9 10 17 18 17 15 16 13 6 5 4 3 2 3 3 4 5 7 5 5 5 7 9 10 9 8 10 14 17 21 24 26 28 29 30
22 20 22 15 9 7 8 9 11 9 16 20 21 21 16 14 8 5 4 4 2 2 3 3 6 10 12 10 7 8 8 7 7 8 10 13 16 21 24 26 28 29 30 31
22 15 12 8 6 6 10 15 17 18 20 20 19 17 13 11 11 5 4 4 3 3 4 3 7 10 12 11 9 7 6 7 9 13 15 17 22 26 27 27 28 29 29 29
12 10 6 9 13 14 18 21 22 23 21 18 18 15 9 11 5 6 5 4 4 5 1 6 10 12 15 11 8 5 6 9 13 16 18 21 24 27 29 28 29 29 28 27
7 6 11 15 20 21 21 22 21 21 21 19 15 10 6 6 5 6 5 4 4 3 5 13 14 12 6 7 7 7 11 15 18 18 20 25 27 29 30 29 28 26 25 24
7 11 15 18 19 20 21 20 19 18 18 16 8 7 6 5 5 6 6 5 5 6 9 12 17 9 7 8 10 13 16 17 19 23 26 27 29 30 30 28 26 24 22 22
Wind_Direction
222 219 222 213 219 213 219 236 227 209 183 191 206 208 206 212 212 207 204 206 220 221 216 213 211 212 221 255 315 315 331 312 298 344 80 318 207 328 328 333 303 273 269 289
221 218 216 215 218 211 211 227 217 197 190 198 205 202 208 209 213 215 215 215 216 218 207 195 205 207 221 270 280 305 318 289 313 125 186 2 313 320 319 308 290 270 270 277
216 216 207 217 218 213 220 227 188 184 192 201 205 203 203 203 205 211 212 215 210 203 190 195 182 179 204 245 296 297 278 258 252 246 282 303 303 308 307 302 277 282 267 294
210 208 210 208 214 211 217 221 203 203 197 196 202 201 205 204 198 201 202 205 210 206 180 172 164 182 192 250 220 285 275 280 298 292 292 289 275 290 294 302 295 282 300 293
203 204 199 213 211 213 217 209 202 192 192 188 191 196 200 204 203 211 209 210 196 189 179 172 172 179 162 162 221 290 282 300 311 306 306 270 266 273 291 285 287 296 279 260
184 201 201 203 203 218 214 207 200 194 178 189 192 198 200 203 209 202 198 198 183 166 160 156 176 181 175 175 172 24 324 325 326 283 317 299 272 258 302 292 287 292 329 309
191 197 195 205 210 217 205 179 180 179 184 188 192 195 199 202 196 214 178 177 173 167 166 171 172 167 175 177 187 0 351 328 303 289 327 237 323 326 321 314 279 277 296 304
206 195 200 211 208 192 162 174 181 181 191 188 189 192 194 185 182 178 183 169 167 165 170 160 145 163 192 214 252 273 316 317 294 277 302 271 256 344 329 322 274 276 305 316
188 195 193 194 180 158 173 175 191 188 185 184 187 182 187 190 187 169 168 167 167 168 168 162 159 169 190 197 230 231 280 262 286 291 282 262 182 344 332 319 265 279 321 324
177 176 162 159 162 163 173 169 184 181 190 183 182 194 184 184 189 178 170 170 167 170 172 180 175 187 200 212 208 214 245 258 250 273 260 270 248 338 336 321 304 321 337 340
154 154 156 162 169 172 171 177 187 189 191 176 175 181 190 184 178 178 175 172 179 174 171 187 186 199 211 227 232 245 241 264 253 276 260 283 312 327 328 324 328 338 351 350
147 146 156 161 166 177 179 180 180 177 187 169 161 162 162 167 181 181 179 183 188 184 186 192 196 204 209 228 236 231 255 232 276 264 282 304 311 321 317 335 341 348 346 343
161 169 172 171 171 172 175 170 160 166 176 157 157 161 169 177 173 176 186 183 180 195 202 192 193 204 224 230 242 245 259 271 265 287 309 315 321 322 325 329 330 326 331 341
156 162 164 165 165 165 166 166 169 168 164 153 158 165 176 177 182 186 187 185 189 196 200 202 211 225 249 252 249 249 243 268 272 283 303 317 327 332 332 317 316 318 328 335
156 153 158 165 171 171 171 167 166 163 165 164 157 164 173 182 187 192 194 195 204 206 215 229 246 264 267 270 269 265 257 243 264 288 307 322 327 325 318 316 321 327 329 329
164 161 161 164 166 167 164 163 168 170 156 163 145 157 159 171 178 180 190 198 206 219 236 252 264 268 259 258 260 258 222 236 267 286 303 320 319 311 310 315 324 326 325 326
158 157 155 155 156 161 165 167 162 163 157 162 146 151 164 166 161 159 164 171 184 213 246 268 275 269 261 261 258 246 223 249 261 278 306 318 318 317 309 315 319 321 324 326
156 155 150 147 150 154 162 163 162 159 158 159 149 158 163 163 163 160 156 158 163 193 260 274 266 266 266 268 274 232 241 239 263 288 312 321 319 318 314 314 318 322 324 322
155 154 150 148 149 152 154 159 162 167 169 167 166 165 169 169 166 162 164 175 209 249 264 253 261 259 249 277 262 218 220 255 276 293 308 315 314 313 316 320 322 322 321 320
153 156 153 151 148 147 146 153 161 169 173 175 169 168 167 168 169 168 168 182 219 239 238 274 274 295 301 275 255 247 262 272 284 303 310 311 313 318 322 321 323 322 323 323
159 160 159 154 150 151 152 147 151 159 164 172 164 160 162 164 170 171 178 175 187 193 276 266 272 290 355 284 256 245 258 277 295 302 302 307 318 322 322 323 324 323 323 325
162 164 160 152 150 149 158 158 156 164 173 170 169 164 167 164 164 164 182 196 214 186 205 237 250 293 300 318 290 275 272 285 293 296 305 315 320 322 323 322 323 322 323 325
165 157 157 156 157 160 160 162 160 167 167 171 177 170 168 169 169 167 177 185 183 225 223 246 281 300 291 292 281 283 288 289 290 295 303 311 320 325 324 324 324 325 325 324
165 158 152 164 159 165 161 163 168 162 158 158 169 179 168 169 177 165 175 189 202 222 224 267 317 306 301 286 266 266 283 302 308 304 300 304 314 319 322 323 323 323 323 321
141 137 150 160 149 154 162 160 160 159 156 157 153 161 160 162 162 177 184 191 221 216 223 325 322 315 306 263 233 260 294 307 306 304 299 301 307 313 318 319 321 321 321 322
121 126 154 157 155 158 158 156 159 161 164 160 165 164 161 174 184 191 191 204 212 208 303 320 332 322 301 234 242 263 288 297 306 306 305 306 308 312 315 318 319 320 319 318
120 139 154 151 164 168 163 161 167 169 165 162 150 165 168 174 201 202 208 239 259 276 300 312 322 317 280 266 266 284 296 304 306 306 307 308 309 313 317 318 319 317 314 313
Height
2930 2936 2944 2943 2958 2968 2980 2985 2988 2993 2998 3007 3009 3010 3015 3021 3027 3030 3032 3034 3038 3041 3041 3044 3045 3047 3050 3052 3053 3050 3050 3050 3049 3051 3050 3048 3048 3049 3048 3048 3046 3043 3040 3029
2919 2926 2937 2942 2950 2961 2972 2977 2981 2987 2994 3000 3003 3008 3012 3016 3023 3027 3029 3030 3033 3037 3038 3042 3044 3044 3047 3049 3049 3047 3047 3049 3049 3049 3050 3047 3045 3046 3047 3045 3043 3039 3039 3029
2910 2919 2925 2937 2945 2956 2965 2971 2975 2981 2988 2995 3001 3003 3009 3014 3020 3023 3026 3027 3029 3034 3035 3037 3039 3042 3045 3048 3045 3045 3046 3048 3047 3047 3044 3044 3042 3042 3043 3042 3040 3035 3033 3026
2904 2914 2924 2929 2939 2948 2959 2963 2967 2972 2977 2987 2996 3001 3006 3011 3015 3019 3022 3025 3028 3028 3032 3034 3034 3040 3043 3043 3043 3044 3045 3045 3043 3039 3038 3039 3038 3038 3038 3037 3036 3033 3029 3026
2900 2909 2917 2927 2937 2944 2951 2956 2961 2969 2977 2986 2993 2999 3003 3007 3011 3015 3018 3023 3024 3027 3028 3029 3034 3038 3039 3041 3043 3043 3043 3042 3039 3035 3035 3034 3035 3035 3035 3034 3031 3029 3026 3023
2895 2905 2915 2923 2931 2941 2944 2951 2958 2969 2975 2983 2991 2995 3000 3005 3010 3014 3018 3021 3022 3023 3026 3030 3034 3036 3037 3040 3041 3042 3041 3040 3040 3036 3036 3034 3035 3033 3032 3030 3027 3026 3022 3020
2894 2903 2911 2920 2929 2936 2943 2952 2960 2968 2975 2982 2988 2993 2999 3003 3007 3011 3014 3018 3019 3023 3026 3030 3032 3034 3037 3039 3040 3040 3040 3040 3039 3036 3035 3035 3033 3032 3030 3026 3024 3023 3021 3018
2891 2900 2908 2917 2924 2931 2943 2954 2962 2968 2974 2981 2987 2993 2998 3002 3006 3008 3012 3015 3019 3022 3026 3029 3031 3034 3037 3038 3039 3039 3039 3039 3038 3037 3035 3034 3031 3030 3027 3023 3021 3019 3017 3014
2891 2899 2907 2914 2922 2933 2946 2954 2962 2969 2973 2981 2987 2990 2996 2999 3002 3007 3010 3015 3018 3022 3024 3027 3029 3033 3035 3037 3037 3037 3037 3038 3038 3037 3035 3031 3029 3028 3024 3021 3018 3016 3014 3011
2890 2897 2906 2917 2927 2938 2947 2956 2962 2969 2975 2979 2985 2990 2993 2997 3001 3005 3010 3014 3017 3020 3022 3025 3028 3031 3033 3034 3034 3034 3035 3035 3036 3035 3033 3029 3028 3026 3022 3022 3023 3015 3012 3009
2892 2902 2912 2923 2932 2941 2950 2957 2963 2970 2974 2979 2985 2990 2994 2997 3001 3004 3009 3014 3016 3019 3021 3025 3026 3028 3030 3031 3031 3032 3033 3034 3033 3033 3031 3029 3026 3025 3023 3021 3016 3013 3010 3007
2897 2907 2917 2926 2935 2943 2950 2956 2963 2969 2975 2979 2985 2990 2994 2999 3002 3006 3007 3011 3014 3016 3020 3022 3025 3026 3028 3029 3030 3030 3032 3032 3032 3032 3029 3026 3023 3021 3018 3016 3014 3012 3009 3007
2905 2914 2922 2930 2937 2944 2951 2957 2963 2968 2974 2980 2986 2989 2994 2998 3001 3004 3008 3011 3013 3015 3018 3020 3022 3025 3026 3026 3027 3027 3028 3028 3028 3028 3026 3024 3021 3019 3017 3014 3012 3011 3008 3005
2911 2917 2925 2932 2939 2945 2952 2958 2964 2970 2974 2978 2986 2990 2994 2997 3000 3003 3007 3010 3012 3015 3017 3019 3020 3022 3024 3024 3024 3024 3025 3025 3025 3024 3023 3021 3019 3016 3014 3013 3011 3009 3006 3003
2914 2921 2928 2935 2942 2948 2954 2960 2966 2971 2978 2979 2984 2990 2994 2997 3000 3002 3005 3008 3011 3013 3016 3018 3019 3019 3021 3021 3020 3019 3020 3021 3022 3021 3020 3019 3016 3014 3012 3011 3009 3006 3004 3001
2918 2924 2931 2937 2943 2949 2955 2961 2967 2972 2976 2980 2985 2991 2994 2996 2999 3001 3003 3006 3009 3012 3014 3016 3016 3016 3019 3017 3015 3016 3017 3018 3018 3019 3017 3016 3014 3012 3010 3008 3006 3004 3002 2999
2921 2927 2933 2940 2946 2951 2957 2963 2968 2973 2977 2982 2986 2990 2994 2996 2999 3001 3003 3006 3008 3011 3012 3013 3013 3013 3015 3013 3012 3015 3014 3015 3016 3016 3015 3013 3011 3009 3007 3005 3003 3001 2998 2995
2924 2931 2937 2942 2948 2954 2959 2963 2969 2974 2978 2982 2985 2989 2994 2996 2998 3001 3003 3006 3007 3009 3010 3011 3011 3011 3011 3009 3009 3010 3012 3013 3013 3013 3012 3010 3008 3007 3005 3003 3001 2998 2996 2993
2927 2934 2940 2945 2950 2955 2960 2965 2970 2975 2981 2981 2984 2987 2992 2995 2998 3000 3004 3006 3007 3008 3008 3009 3010 3008 3008 3008 3008 3009 3010 3011 3011 3010 3009 3007 3006 3005 3003 3001 2998 2995 2992 2989
2929 2937 2942 2946 2951 2957 2962 2968 2972 2976 2978 2982 2984 2987 2990 2995 2998 3001 3004 3005 3005 3006 3008 3007 3006 3005 3005 3005 3006 3007 3007 3007 3007 3007 3006 3004 3003 3001 3000 2998 2995 2992 2988 2984
2932 2938 2943 2949 2953 2959 2964 2967 2972 2975 2979 2981 2984 2988 2990 2995 2998 3000 3003 3003 3004 3005 3007 3006 3005 3003 3003 3002 3002 3003 3004 3004 3004 3004 3003 3002 3000 2999 2997 2994 2990 2987 2983 2978
2937 2942 2947 2951 2956 2960 2964 2966 2970 2972 2976 2979 2983 2987 2991 2994 2997 3000 3002 3003 3003 3004 3005 3005 3002 3003 3002 3002 3001 3001 3001 3002 3002 3001 3000 2999 2998 2995 2993 2990 2986 2982 2977 2973
2940 2944 2948 2952 2956 2959 2961 2963 2967 2970 2972 2977 2981 2985 2990 2994 2997 2999 3000 3001 3002 3003 3003 3002 3001 3000 3000 3000 2999 2999 2999 2999 2999 2999 2998 2996 2995 2992 2989 2984 2980 2976 2971 2967
2941 2945 2949 2952 2956 2958 2959 2962 2966 2969 2973 2977 2981 2985 2989 2992 2995 2997 2999 3000 3001 3001 3000 2999 2999 2999 2998 2998 2997 2997 2997 2997 2996 2996 2994 2992 2990 2987 2983 2979 2975 2971 2966 2962
2943 2946 2949 2952 2955 2957 2960 2963 2966 2970 2974 2978 2981 2986 2989 2991 2994 2995 2997 2998 2997 2997 2997 2998 2997 2995 2994 2994 2994 2995 2995 2994 2993 2992 2990 2987 2985 2981 2978 2974 2969 2965 2961 2957
2944 2947 2950 2953 2956 2959 2963 2966 2969 2972 2975 2978 2983 2986 2988 2990 2992 2993 2993 2995 2994 2995 2995 2995 2993 2992 2991 2991 2992 2992 2992 2991 2989 2987 2984 2982 2979 2976 2972 2968 2964 2960 2955 2952
2946 2949 2952 2954 2959 2962 2964 2967 2971 2973 2976 2979 2982 2984 2986 2988 2989 2990 2991 2992 2993 2993 2993 2992 2991 2989 2989 2989 2989 2988 2987 2986 2984 2982 2979 2977 2973 2970 2966 2962 2958 2954 2951 2949